Regional Weather Roundup
Issued by NWS

Home | Current Version | Previous Version | Text Only | Print | Product List | Glossary Off
Versions: 1 2 3 4 5 6 7 8 9 10 11 12 13 14 15 16 17 18 19 20 21 22 23 24 25 26 27 28 29 30 31 32 33 34 35 36 37 38 39 40 41 42 43 44 45 46 47 48 49 50

000
ASUS43 KDMX 211507
RWRIA

WEATHER ROUNDUP FOR IOWA
NATIONAL WEATHER SERVICE DES MOINES IA
1000 AM CDT MON JUL 21 2014

NOTE: "FAIR" INDICATES FEW OR NO CLOUDS BELOW 12,000 FEET WITH NO
SIGNIFICANT WEATHER AND/OR OBSTRUCTIONS TO VISIBILITY.

* - THESE STATIONS ARE NOT NWS STATIONS...THUS NOT UNDER NWS
QUALITY CONTROL.  THEY ALSO DO NOT REPORT WEATHER SUCH
AS PRECIPITATION OR FOG.

IAZ001>003-012>014-020>022-031>034-043>046-211600-
   NORTHWEST IOWA

CITY           SKY/WX    TMP DP  RH WIND       PRES   REMARKS
CARROLL *      MOSUNNY   79  72  78 S14       29.90S HX  82
CHEROKEE *     CLOUDY    79  73  83 S13       29.87S HX  82
DENISON *      CLOUDY    79  72  78 S9G17     29.87S HX  82
LE MARS *      CLOUDY    79  73  83 SE13      29.85S HX  82
ORANGE CITY *  CLOUDY    81  72  74 S7        29.86S HX  84
SHELDON *      CLOUDY    77  72  83 SE10      29.86F
SIOUX CITY     CLOUDY    79  72  79 SE12      29.84S HX  82
SPENCER        PTSUNNY   79  71  76 S12       29.89S HX  82
STORM LAKE *   CLOUDY    77  75  94 S14       29.90S
$$

IAZ055>058-069>071-079>083-090>094-211600-
   SOUTHWEST IOWA

CITY           SKY/WX    TMP DP  RH WIND       PRES   REMARKS
ATLANTIC *     CLOUDY    79  72  78 S14       29.90S HX  82
AUDUBON *      SUNNY     81  75  83 S14       29.92S HX  86
CLARINDA *     SUNNY     81  73  78 S10       29.93R HX  85
COUNCIL BLFS * MOSUNNY   81  75  83 S15       29.87S HX  86
CRESTON *      SUNNY     79  72  78 S13G22    29.95R HX  82
HARLAN  *      PTSUNNY   79  73  83 S15       29.92F HX  82
LAMONI         SUNNY     78  70  76 S14       29.97S HX  80
RED OAK *      SUNNY     81  73  78 S13       29.90S HX  85
SHENANDOAH *   SUNNY     81  73  78 S16       29.90S HX  85
$$

IAZ047>049-059>061-072>074-084-211600-
   CENTRAL IOWA

CITY           SKY/WX    TMP DP  RH WIND       PRES   REMARKS
AMES           SUNNY     79  70  74 SE13      29.93F HX  82
ANKENY *       SUNNY     79  72  78 S10G16    29.94S HX  82
CHARITON *     SUNNY     79  72  78 S15       29.97F HX  82
DES MOINES     MOSUNNY   81  70  69 S13       29.94S HX  84
GRINNELL*      CLOUDY    75  68  78 SE12G18   29.99S
KNOXVILLE *    MOSUNNY   79  70  73 S12G20    29.95F HX  81
MARSHALLTOWN   MOSUNNY   77  68  73 S15       29.96F
PELLA *        SUNNY     79  70  73 SE12      29.98F HX  81
PERRY *          N/A     81  72  74 S13       29.92S HX  84
$$

IAZ004>006-015-016-023>025-035-036-211600-
   NORTH CENTRAL IOWA

CITY           SKY/WX    TMP DP  RH WIND       PRES   REMARKS
ALGONA *       SUNNY     77  72  83 S13       29.91F
CLARION *      SUNNY     79  72  78 SE12G17   29.92F HX  82
ESTHERVILLE    SUNNY     76  70  82 SE10      29.90S
FORT DODGE *   SUNNY     79  70  73 S10G16    29.92F HX  81
MASON CITY     SUNNY     77  70  79 SE12      29.96F
FOREST CITY *  SUNNY     79  70  73 SE16      29.93F HX  81
IOWA FALLS *     N/A     77  68  73 SE10      29.96F
$$

IAZ007>011-017>019-026>030-037>042-050>054-066-211600-
   NORTHEAST IOWA

CITY           SKY/WX    TMP DP  RH WIND       PRES   REMARKS
CEDAR RAPIDS   SUNNY     76  65  68 S14       30.02R
CHARLES CITY * SUNNY     75  68  78 SE12      29.98F
DECORAH *      MOSUNNY   75  68  78 S8G14     30.00S
DUBUQUE        CLOUDY    72  66  81 S13       30.05F
MONTICELLO *   SUNNY     77  68  73 SE9G17    30.03F
OELWEIN *      SUNNY     77  70  78 S14       30.01F
WATERLOO       SUNNY     78  67  68 S14       29.98S HX  80
$$

IAZ064-065-067-068-078-211600-
   EAST CENTRAL IOWA

CITY           SKY/WX    TMP DP  RH WIND       PRES   REMARKS
DAVENPORT      SUNNY     77  66  68 S8        30.06F
IOWA CITY      SUNNY     77  68  73 S12       30.04S
MT. PLEASANT * SUNNY     79  64  61 S9        30.04F HX  81
MUSCATINE *    SUNNY     79  66  65 SE8       30.04F HX  81
QUAD CITIES    SUNNY     78  66  66 S6        30.05F HX  80
$$

IAZ062-063-075>077-085>089-095>099-211600-
   SOUTHEAST IOWA

CITY           SKY/WX    TMP DP  RH WIND       PRES   REMARKS
BURLINGTON     SUNNY     77  67  71 S12       30.05F
FAIRFIELD *    SUNNY     79  68  69 S13       30.03S HX  81
FORT MADISON * SUNNY     79  70  73 S9        30.06F HX  81
KEOKUK *       SUNNY     77  68  73 S8        30.05S
OSKALOOSA *    CLOUDY    75  68  78 S12       30.00F
OTTUMWA        CLOUDY    76  68  76 S13       29.98F
WASHINGTON *   SUNNY     79  70  73 S9        30.03S HX  81
$$

ABBREVIATIONS USED IN REMARKS
   TC - TEMPERATURES IN CELSIUS
  WCI - WIND CHILL INDEX
   HX - HEAT INDEX
  VSB - VISIBILITY
$$




USA.gov is the U.S. government's official web portal to all federal, state and local government web resources and services.